�N����,����,�~����,�C��,���x,�C��,����,���ϕ���,�ő�u�ԕ���,�ő厞����,���˗�,�I�_���x,�n�����x,�ő啗���N��,DTYPE
"21/10/29","00:10",0.0,10.2,88.9,1016.4,308.5,1.3,2.0,327.3,0.00,8.5,16.4,"00:02:32",1
"21/10/29","00:20",0.0,10.3,89.1,1016.1,304.4,1.3,2.5,318.9,0.00,8.6,16.4,"00:13:36",1
"21/10/29","00:30",0.0,10.1,89.3,1016.6,294.8,1.3,1.8,289.4,0.00,8.5,16.3,"00:23:12",1
"21/10/29","00:40",0.0,10.0,89.7,1016.8,309.9,1.8,2.4,323.3,0.00,8.4,16.4,"00:38:40",1
"21/10/29","00:50",0.0,9.9,89.9,1016.8,320.1,1.2,2.7,301.9,0.00,8.4,16.2,"00:41:28",1
"21/10/29","01:00",0.0,9.8,90.2,1017.3,310.6,1.6,2.7,328.4,0.00,8.3,16.1,"00:57:12",1
"21/10/29","01:10",0.0,9.6,90.6,1017.1,303.1,1.5,2.4,317.0,0.00,8.2,15.9,"01:08:24",1
"21/10/29","01:20",0.0,9.8,90.8,1016.8,308.1,1.7,2.8,312.2,0.00,8.4,16.2,"01:15:04",1
"21/10/29","01:30",0.0,9.8,90.7,1016.8,304.0,1.6,2.2,260.6,0.00,8.4,16.1,"01:23:04",1
"21/10/29","01:40",0.0,9.8,90.8,1017.1,309.0,1.3,3.4,350.7,0.00,8.4,15.9,"01:37:04",1
"21/10/29","01:50",0.0,9.5,90.8,1016.8,310.2,1.1,2.2,266.9,0.00,8.1,16.0,"01:44:40",1
"21/10/29","02:00",0.0,9.2,90.8,1017.1,309.8,1.2,2.2,289.7,0.00,7.8,15.9,"01:51:04",1
"21/10/29","02:10",0.0,8.8,90.8,1017.1,284.0,0.8,1.7,307.0,0.00,7.4,15.8,"02:04:16",1
"21/10/29","02:20",0.0,8.6,91.0,1016.8,290.2,1.3,2.5,291.6,0.00,7.3,15.7,"02:10:40",1
"21/10/29","02:30",0.0,8.5,91.2,1016.8,279.6,1.0,1.8,280.7,0.00,7.2,15.9,"02:20:02",1
"21/10/29","02:40",0.0,8.6,91.3,1016.8,292.6,1.1,2.0,265.4,0.00,7.3,15.8,"02:30:24",1
"21/10/29","02:50",0.0,8.5,91.5,1016.8,318.3,1.7,2.4,327.0,0.00,7.2,16.0,"02:41:04",1
"21/10/29","03:00",0.0,8.4,91.8,1016.8,317.1,1.7,2.6,313.4,0.00,7.2,15.9,"02:54:32",1
"21/10/29","03:10",0.0,8.4,91.9,1016.8,306.7,1.5,2.2,323.4,0.00,7.2,15.7,"03:09:44",1
"21/10/29","03:20",0.0,8.1,91.9,1016.6,295.6,1.2,2.0,319.9,0.00,6.9,15.6,"03:11:04",1
"21/10/29","03:30",0.0,8.0,92.2,1016.8,306.1,1.7,2.8,323.5,0.00,6.9,15.8,"03:20:24",1
"21/10/29","03:40",0.0,8.0,92.5,1016.8,305.1,1.7,2.9,318.6,0.00,6.9,15.5,"03:35:36",1
"21/10/29","03:50",0.0,8.1,92.6,1016.8,297.6,1.7,2.8,325.1,0.00,7.0,15.6,"03:47:44",1
"21/10/29","04:00",0.0,8.0,92.8,1016.8,289.1,1.3,1.9,298.7,0.00,6.9,15.5,"03:57:44",1
"21/10/29","04:10",0.0,7.9,93.1,1016.6,302.9,1.5,2.5,325.6,0.00,6.9,15.6,"04:08:24",1
"21/10/29","04:20",0.0,7.9,93.2,1016.6,306.0,1.6,2.5,316.9,0.00,6.9,15.5,"04:17:04",1
"21/10/29","04:30",0.0,7.9,93.4,1016.8,309.4,1.6,2.4,318.3,0.00,6.9,15.4,"04:23:52",1
"21/10/29","04:40",0.0,7.6,93.5,1016.6,293.7,1.3,2.1,321.0,0.00,6.7,15.5,"04:33:36",1
"21/10/29","04:50",0.0,7.5,93.8,1017.1,296.2,1.2,2.2,306.2,0.00,6.6,15.4,"04:45:36",1
"21/10/29","05:00",0.0,7.5,93.9,1017.1,298.1,1.7,2.5,320.3,0.00,6.6,15.1,"04:53:28",1
"21/10/29","05:10",0.0,7.5,94.1,1017.3,298.7,1.6,2.0,313.7,0.00,6.7,15.2,"05:06:32",1
"21/10/29","05:20",0.0,7.7,94.2,1017.3,298.3,1.6,2.1,311.3,0.00,6.9,15.3,"05:17:52",1
"21/10/29","05:30",0.0,7.5,94.3,1017.1,296.6,1.2,2.1,332.5,0.00,6.7,15.2,"05:27:20",1
"21/10/29","05:40",0.0,7.4,94.4,1016.8,299.0,1.0,2.0,309.9,0.00,6.6,15.2,"05:35:28",1
"21/10/29","05:50",0.0,7.2,94.8,1017.1,312.8,1.8,2.4,316.3,0.00,6.5,15.2,"05:42:56",1
"21/10/29","06:00",0.0,7.2,94.8,1017.3,302.4,1.6,2.5,314.5,0.00,6.5,15.1,"05:57:28",1
"21/10/29","06:10",0.0,7.2,95.0,1017.3,306.7,1.8,2.4,313.4,0.00,6.5,15.1,"06:04:32",1
"21/10/29","06:20",0.0,7.4,95.2,1017.5,303.1,1.1,1.9,311.0,0.00,6.7,14.9,"06:11:28",1
"21/10/29","06:30",0.0,7.8,95.4,1017.3,293.9,1.3,2.6,329.4,0.00,7.2,15.1,"06:29:12",1
"21/10/29","06:40",0.0,8.5,95.2,1017.3,299.1,1.8,2.8,302.5,0.00,7.8,14.9,"06:33:12",1
"21/10/29","06:50",0.0,8.7,95.2,1017.5,303.2,1.2,2.1,308.4,0.00,8.0,14.9,"06:48:40",1
"21/10/29","07:00",0.0,8.7,95.2,1017.5,315.4,1.5,2.1,321.1,0.00,8.0,14.9,"06:50:24",1
"21/10/29","07:10",0.0,8.9,95.4,1017.5,289.2,1.3,2.0,314.0,0.00,8.2,14.9,"07:01:20",1
"21/10/29","07:20",0.0,9.5,95.5,1017.5,307.4,1.7,3.1,308.7,0.01,8.9,14.9,"07:17:20",1
"21/10/29","07:30",0.0,10.3,95.2,1017.8,331.6,1.1,2.9,311.6,0.02,9.6,14.9,"07:21:52",1
"21/10/29","07:40",0.0,11.1,95.2,1018.0,286.9,0.7,1.2,307.1,0.04,10.4,14.7,"07:33:04",1
"21/10/29","07:50",0.0,11.6,94.9,1017.8,291.3,1.2,1.8,248.5,0.05,10.9,14.7,"07:48:48",1
"21/10/29","08:00",0.0,11.9,94.0,1018.0,342.9,1.0,2.7,339.8,0.07,11.0,14.7,"07:56:32",1
"21/10/29","08:10",0.0,12.6,93.5,1018.2,40.7,0.3,1.0,315.1,0.10,11.6,14.8,"08:02:16",1
"21/10/29","08:20",0.0,13.5,91.8,1018.2,230.4,0.3,1.2,67.1,0.13,12.2,14.9,"08:10:40",1
"21/10/29","08:30",0.0,13.6,89.8,1018.7,217.6,0.6,1.4,191.7,0.14,12.0,14.8,"08:29:44",1
"21/10/29","08:40",0.0,14.2,87.6,1019.0,194.8,1.0,2.7,206.9,0.17,12.2,14.7,"08:32:32",1
"21/10/29","08:50",0.0,14.6,83.2,1019.2,212.1,1.2,1.8,205.1,0.20,11.8,14.9,"08:42:56",1
"21/10/29","09:00",0.0,15.3,78.3,1019.0,252.2,1.5,2.9,214.0,0.22,11.6,14.8,"08:55:44",1
"21/10/29","09:10",0.0,16.1,69.8,1019.0,336.7,1.7,3.9,295.9,0.24,10.6,14.9,"09:03:52",1
"21/10/29","09:20",0.0,17.1,64.4,1018.7,346.2,1.7,3.7,320.5,0.27,10.4,15.0,"09:14:24",1
"21/10/29","09:30",0.0,17.2,61.6,1018.7,348.2,2.6,6.2,347.6,0.30,9.8,15.0,"09:23:44",1
"21/10/29","09:40",0.0,17.4,59.3,1018.2,2.8,2.5,10.3,323.8,0.32,9.4,15.0,"09:36:48",1
"21/10/29","09:50",0.0,18.0,57.1,1017.8,358.5,1.7,3.9,340.1,0.34,9.4,15.0,"09:41:12",1
"21/10/29","10:00",0.0,18.2,54.7,1017.8,354.1,2.1,4.5,318.4,0.36,9.0,15.0,"09:56:24",1
"21/10/29","10:10",0.0,18.5,53.1,1017.3,355.0,1.7,4.5,13.4,0.39,8.8,15.2,"10:09:20",1
"21/10/29","10:20",0.0,18.4,55.0,1017.1,349.4,2.5,4.9,348.8,0.39,9.2,15.2,"10:16:48",1
"21/10/29","10:30",0.0,18.4,55.5,1017.1,344.9,2.8,6.4,340.0,0.41,9.4,15.2,"10:24:48",1
"21/10/29","10:40",0.0,18.5,53.6,1017.3,354.9,2.7,6.3,345.9,0.42,9.0,15.2,"10:31:52",1
"21/10/29","10:50",0.0,18.9,52.9,1016.8,8.5,2.2,4.4,27.1,0.43,9.1,15.4,"10:43:36",1
"21/10/29","11:00",0.0,19.2,55.5,1016.6,346.7,2.3,8.0,344.8,0.44,10.1,15.2,"10:52:40",1
"21/10/29","11:10",0.0,19.0,54.2,1016.6,358.7,2.5,5.1,23.9,0.45,9.6,15.5,"11:07:20",1
"21/10/29","11:20",0.0,19.1,56.1,1016.1,344.7,2.7,6.4,327.5,0.45,10.2,15.3,"11:18:40",1
"21/10/29","11:30",0.0,19.1,55.9,1015.9,343.4,2.8,6.6,343.0,0.46,10.1,15.5,"11:20:32",1
"21/10/29","11:40",0.0,18.9,55.0,1015.6,2.7,2.6,7.1,356.7,0.47,9.7,15.5,"11:38:32",1
"21/10/29","11:50",0.0,18.6,54.9,1015.6,5.4,3.5,7.8,343.4,0.47,9.4,15.5,"11:49:28",1
"21/10/29","12:00",0.0,18.9,54.3,1015.9,7.5,3.0,7.3,352.2,0.47,9.5,15.9,"11:50:48",1
"21/10/29","12:10",0.0,18.7,53.9,1015.4,354.7,3.6,6.4,355.2,0.47,9.2,15.9,"12:03:20",1
"21/10/29","12:20",0.0,18.9,53.0,1015.2,359.6,3.4,8.3,344.0,0.47,9.2,15.9,"12:16:24",1
"21/10/29","12:30",0.0,19.0,51.7,1015.4,345.7,3.5,7.0,28.0,0.47,8.9,15.8,"12:20:24",1
"21/10/29","12:40",0.0,19.0,51.0,1014.9,346.3,3.5,7.9,347.8,0.47,8.7,16.0,"12:37:44",1
"21/10/29","12:50",0.0,19.2,48.6,1014.7,350.0,3.5,7.5,353.0,0.46,8.2,16.0,"12:47:36",1
"21/10/29","13:00",0.0,19.1,49.2,1014.7,340.7,3.6,8.3,332.6,0.46,8.2,16.1,"12:52:40",1
"21/10/29","13:10",0.0,18.9,46.7,1015.2,341.9,3.6,7.4,319.9,0.45,7.3,16.2,"13:03:20",1
"21/10/29","13:20",0.0,19.1,44.9,1014.9,352.7,3.5,8.2,354.5,0.44,6.9,16.5,"13:14:56",1
"21/10/29","13:30",0.0,19.2,44.6,1014.9,353.7,3.1,5.5,335.1,0.43,6.9,16.2,"13:21:52",1
"21/10/29","13:40",0.0,19.0,45.9,1014.9,357.8,3.1,6.8,42.0,0.41,7.1,16.2,"13:34:48",1
"21/10/29","13:50",0.0,19.4,46.5,1014.9,343.8,3.2,7.2,344.4,0.40,7.7,16.4,"13:41:44",1
"21/10/29","14:00",0.0,19.3,46.9,1015.2,359.1,3.1,8.7,28.9,0.38,7.7,16.6,"13:50:48",1
"21/10/29","14:10",0.0,19.2,46.5,1014.9,13.4,3.5,6.6,69.1,0.36,7.5,16.6,"14:01:44",1
"21/10/29","14:20",0.0,19.4,48.1,1014.9,348.9,3.0,6.8,4.3,0.34,8.2,16.4,"14:14:48",1
"21/10/29","14:30",0.0,19.3,48.4,1014.7,337.2,3.2,8.1,334.8,0.32,8.2,16.7,"14:24:24",1
"21/10/29","14:40",0.0,19.2,50.8,1014.9,329.4,3.6,7.0,327.6,0.30,8.8,16.6,"14:32:00",1
"21/10/29","14:50",0.0,19.3,50.8,1014.9,331.9,3.5,7.8,327.2,0.28,8.9,16.7,"14:42:48",1
"21/10/29","15:00",0.0,19.0,50.7,1014.9,338.9,3.5,6.2,354.0,0.26,8.6,16.8,"14:50:48",1
"21/10/29","15:10",0.0,18.6,50.7,1015.2,340.7,4.1,8.2,344.3,0.23,8.2,16.7,"15:09:12",1
"21/10/29","15:20",0.0,18.5,52.6,1015.4,339.0,3.7,8.1,348.3,0.21,8.7,16.9,"15:15:20",1
"21/10/29","15:30",0.0,18.9,51.5,1014.7,337.3,2.6,5.4,313.5,0.18,8.7,17.0,"15:21:04",1
"21/10/29","15:40",0.0,19.2,51.2,1014.7,342.1,2.2,7.1,336.0,0.15,8.9,16.8,"15:39:28",1
"21/10/29","15:50",0.0,18.5,52.1,1015.4,345.9,2.8,6.4,321.1,0.13,8.5,16.8,"15:48:08",1
"21/10/29","16:00",0.0,18.7,53.0,1015.2,343.1,2.2,5.2,348.4,0.10,9.0,16.9,"15:50:08",1
"21/10/29","16:10",0.0,18.4,53.0,1015.2,344.1,2.3,4.3,324.2,0.08,8.7,16.9,"16:06:08",1
"21/10/29","16:20",0.0,17.6,54.3,1015.2,330.9,3.2,6.2,340.3,0.05,8.3,16.9,"16:12:32",1
"21/10/29","16:30",0.0,17.5,55.5,1015.4,322.2,2.3,6.3,332.7,0.04,8.5,16.9,"16:24:48",1
"21/10/29","16:40",0.0,17.4,55.1,1015.4,320.9,2.1,4.5,343.4,0.02,8.3,17.1,"16:39:28",1
"21/10/29","16:50",0.0,17.1,56.2,1015.6,313.7,2.0,3.2,337.3,0.01,8.4,17.0,"16:42:32",1
"21/10/29","17:00",0.0,16.7,57.3,1015.9,318.0,1.6,3.3,337.6,0.00,8.3,17.0,"16:59:52",1
"21/10/29","17:10",0.0,16.1,59.5,1016.1,319.9,1.6,3.3,345.3,0.00,8.3,16.9,"17:02:16",1
"21/10/29","17:20",0.0,15.6,60.9,1016.4,308.4,1.5,3.4,347.5,0.00,8.1,16.8,"17:12:24",1
"21/10/29","17:30",0.0,15.3,62.6,1015.6,309.4,1.5,2.6,339.4,0.00,8.3,16.7,"17:27:28",1
"21/10/29","17:40",0.0,15.0,63.9,1016.1,310.6,1.5,2.8,324.1,0.00,8.3,16.8,"17:31:36",1
"21/10/29","17:50",0.0,14.5,65.5,1016.4,317.4,1.3,2.5,342.2,0.00,8.2,16.8,"17:40:24",1
"21/10/29","18:00",0.0,14.1,67.0,1016.4,312.6,1.2,1.9,316.8,0.00,8.1,16.9,"17:50:08",1
"21/10/29","18:10",0.0,14.1,67.9,1016.6,310.2,1.5,4.0,330.2,0.00,8.3,16.9,"18:03:38",1
"21/10/29","18:20",0.0,13.9,68.7,1017.1,324.1,1.3,2.0,323.4,0.00,8.3,16.7,"18:19:30",1
"21/10/29","18:30",0.0,13.6,69.6,1017.1,317.3,1.5,2.1,301.5,0.00,8.2,16.7,"18:25:54",1
"21/10/29","18:40",0.0,13.4,70.2,1017.1,324.7,1.3,2.4,340.4,0.00,8.1,16.5,"18:39:14",1
"21/10/29","18:50",0.0,13.0,71.0,1017.3,324.4,1.2,1.8,327.7,0.00,7.9,16.8,"18:44:16",1
"21/10/29","19:00",0.0,12.5,71.9,1017.3,315.2,0.8,2.1,318.9,0.00,7.6,16.5,"18:50:38",1
"21/10/29","19:10",0.0,11.6,72.9,1017.5,300.8,0.8,1.6,309.7,0.00,7.0,16.5,"19:08:16",1
"21/10/29","19:20",0.0,10.9,74.5,1017.3,314.4,0.6,1.3,14.6,0.00,6.6,16.7,"19:10:02",1
"21/10/29","19:30",0.0,11.6,76.1,1017.1,323.8,1.7,3.6,333.6,0.00,7.6,16.5,"19:27:52",1
"21/10/29","19:40",0.0,12.3,76.2,1017.3,310.6,2.0,3.2,336.9,0.00,8.3,16.4,"19:31:10",1
"21/10/29","19:50",0.0,12.4,76.0,1017.3,321.4,1.7,3.1,340.4,0.00,8.3,16.5,"19:42:30",1
"21/10/29","20:00",0.0,11.8,76.3,1017.3,302.5,0.7,1.3,322.3,0.00,7.8,16.4,"19:50:38",1
"21/10/29","20:10",0.0,11.3,77.5,1017.5,290.2,1.3,2.0,305.0,0.00,7.6,16.5,"20:04:48",1
"21/10/29","20:20",0.0,11.1,79.0,1017.5,288.8,1.5,2.1,266.7,0.00,7.6,16.3,"20:19:22",1
"21/10/29","20:30",0.0,11.4,79.9,1017.5,320.6,1.8,3.3,336.6,0.00,8.1,16.2,"20:28:44",1
"21/10/29","20:40",0.0,11.3,80.4,1017.5,296.2,1.7,2.6,325.9,0.00,8.1,16.3,"20:30:24",1
"21/10/29","20:50",0.0,11.0,81.0,1017.5,312.3,1.6,2.4,335.5,0.00,7.9,16.2,"20:48:50",1
"21/10/29","21:00",0.0,10.8,81.6,1017.5,309.2,1.6,2.4,319.5,0.00,7.8,16.1,"20:56:08",1
"21/10/29","21:10",0.0,10.8,82.5,1017.5,313.9,2.1,3.2,315.5,0.00,8.0,16.3,"21:09:52",1
"21/10/29","21:20",0.0,10.8,82.9,1018.2,307.7,2.1,3.7,331.3,0.00,8.1,16.1,"21:11:36",1
"21/10/29","21:30",0.0,10.9,83.3,1018.2,328.7,2.5,4.0,339.2,0.00,8.2,16.0,"21:24:50",1
"21/10/29","21:40",0.0,11.0,83.8,1018.2,331.8,2.2,3.5,329.7,0.00,8.4,16.0,"21:30:02",1
"21/10/29","21:50",0.0,11.5,83.7,1018.2,329.8,2.3,4.8,338.1,0.00,8.9,16.0,"21:46:34",1
"21/10/29","22:00",0.0,11.4,83.2,1018.5,333.1,1.8,3.5,348.2,0.00,8.7,16.0,"21:59:06",1
"21/10/29","22:10",0.0,11.1,83.1,1018.2,327.7,2.2,3.3,337.3,0.00,8.4,16.0,"22:02:36",1
"21/10/29","22:20",0.0,11.0,83.1,1018.0,327.7,2.7,3.6,321.3,0.00,8.3,15.8,"22:16:34",1
"21/10/29","22:30",0.0,11.0,83.2,1018.5,328.9,1.6,3.1,337.4,0.00,8.3,15.6,"22:22:58",1
"21/10/29","22:40",0.0,10.8,83.3,1018.0,317.2,1.8,3.2,330.6,0.00,8.1,15.7,"22:36:24",1
"21/10/29","22:50",0.0,10.8,83.5,1018.2,329.5,2.2,3.7,332.7,0.00,8.2,15.9,"22:45:28",1
"21/10/29","23:00",0.0,10.9,83.6,1018.2,319.9,2.3,3.6,329.9,0.00,8.3,15.7,"22:59:08",1
"21/10/29","23:10",0.0,10.8,83.7,1018.5,320.8,2.2,3.7,341.0,0.00,8.2,15.7,"23:03:20",1
"21/10/29","23:20",0.0,10.9,83.9,1018.5,324.0,2.3,3.4,311.5,0.00,8.3,15.7,"23:17:52",1
"21/10/29","23:30",0.0,10.7,83.8,1018.5,316.8,1.8,3.4,319.1,0.00,8.1,15.5,"23:21:04",1
"21/10/29","23:40",0.0,10.3,84.1,1018.2,312.9,0.6,2.0,301.4,0.00,7.8,15.5,"23:30:02",1
"21/10/29","23:50",0.0,10.0,84.6,1018.7,306.9,1.5,2.8,308.0,0.00,7.6,15.6,"23:40:08",1
"21/10/29","24:00",0.0,9.7,85.1,1018.7,322.4,1.6,2.2,311.0,0.00,7.4,15.5,"23:58:00",1
